Weather in Kolokhta

Russia / Kostroma Oblast     59°02′22″N   44°04′55″E
temp.,
°C
wind,
m/s
gust,
m/s
humid.,
%
clouds,
%
prec.,
mm/h
press.,
hPa
HPBL,
m
19 april, mon
mon1900:00−1ene3118149 0.0 1033365
03:00−2ene310825 0.0 1033360
06:00−1ene310765 0.0 1034382
09:00+3e58525 0.0 10341106
12:00+6e57425 0.0 10331578
15:00+7e46395 0.0 10331638
18:00+5ese37523 0.0 1032556
21:000e29750 0.0 1034193
20 april, tue
tue2000:00−1e29770 0.0 1034224
03:00−2e29750 0.0 1034218
06:000e310640 0.0 1034399
09:00+5ese57360 0.0 1033999
12:00+8ese57310 0.0 10311411
15:00+9ese57310 0.0 10291547
18:00+7ese49451 0.0 1028631
21:00+3ese4136328 0.0 1027416
21 april, wed
wed2100:00+2ese41463100 0.0 1026504
03:00+1ese51663100 0.0 1023564
06:00+2ese61756100 0.0 1020820
09:00+5ese71747100 0.0 10171016
12:00+1se71892100 1.1 1016964
15:00+1se71696100 4.7 1014869
18:00+1se71696100 0.4 1013952
21:00+3se71793100 0.5 10111199
22 april, thu
thu2200:00+4sse61494100 0.1 10121368
03:00+4s61288100 0.3 10141164
06:00+4s51190100 0.1 1015936
09:00+6s5118185 0.1 10161161
12:00+9s61273100 0.8 10151678
15:00+10ssw5107116 2.1 10161420
18:00+8ssw51178100 0.4 10181103
21:00+5s3128996 0.4 1019385
23 april, fri
fri2300:00+4s31094100 0.0 1020263
03:00+3sse28955 0.0 1021154
06:00+4sse399511 0.0 1021245
09:00+10sse49789 0.0 1021625
12:00+13s586682 0.2 10201302
15:00+14s4861100 1.6 10191401
18:00+12sse4107091 0.7 1019657
21:00+9sse414825 0.7 1019477